Location: Unspecified
(0.0000°N, 0.0000°E)
Time: 10:27:59
(UTC+00:00)

deb DAPP - Pass Details

Date: 15 December 2025
Orbit: 606 x 945 km, 99.0° (Epoch: 17 January)

Event Time Altitude Azimuth Distance (km) Brightness Sun altitude
Rises 18:33:22 0° 150° (SSE) 3,197 ? -8.7°
Reaches altitude 10° 18:35:45 10° 141° (SE) 2,324 ? -9.3°
Maximum altitude 18:40:27 36° 76° (ENE) 1,283 ? -10.3°
Drops below altitude 10° 18:45:30 10° 11° (N) 2,512 ? -11.5°
Sets 18:48:09 0° 3° (N) 3,491 ? -12.1°
